Weather History for KRGK - December, 2012

Change the Weather History Date:

Saturday, December 15, 2012

  Actual Average Record
Temperature  
Mean Temperature 38 °F -  
Max Temperature 41 °F 28 °F 48 °F (2014)
Min Temperature 35 °F 14 °F -7 °F (2008)
Degree Days  
Heating Degree Days 27    
Moisture  
Dew Point 35 °F    
Average Humidity 90    
Maximum Humidity 100    
Minimum Humidity 65    
Precipitation  
Precipitation 0.26 in - - ()
Sea Level Pressure  
Sea Level Pressure 29.61 in    
Wind  
Wind Speed 8 mph (ESE)    
Max Wind Speed 14 mph    
Max Gust Speed 20 mph    
Visibility 3 miles    
Events Fog , Rain    
Averages and records for this station are not official NWS values.
T = Trace of Precipitation, MM = Missing Value Source: NWS Daily Summary

Daily Weather History Graph

Daily Weather History Graph

Search for Another Location

Airport or City:

Trip Planner

Search our weather history database for the weather conditions in past years. The results will help you decide how hot, cold, wet, or windy it might be!

Date:

Astronomy

Dec. 15, 2012 Rise Set
Actual Time 7:40 AM CST 4:30 PM CST
Civil Twilight 7:06 AM CST 5:04 PM CST
Nautical Twilight 6:29 AM CST 5:40 PM CST
Astronomical Twilight 5:54 AM CST 6:16 PM CST
Moon 9:28 AM CST (12/15) 7:40 PM CST (12/15)
Length of Visible Light 9h 57m
Length of Day
8h 50m
Waxing Crescent, 8% of the Moon is Illuminated
Dec 15
Waxing Crescent
Dec 19
First Quarter
Dec 28
Full
Jan 4
Last Quarter
Jan 11
New

Hourly Weather History & Observations

Time (CST) Temp. Windchill Dew Point Humidity Pressure Visibility Wind Dir Wind Speed Gust Speed Precip Events Conditions
12:15 AM 41.0 °F 34.7 °F 30.2 °F 65% 29.83 in 10.0 mi ESE 10.4 mph - N/A   Overcast
12:35 AM 39.2 °F 34.2 °F 30.2 °F 70% 29.82 in 10.0 mi East 6.9 mph - N/A   Overcast
12:55 AM 39.2 °F 34.2 °F 30.2 °F 70% 29.81 in 10.0 mi East 6.9 mph - N/A   Overcast
1:15 AM 39.2 °F 34.2 °F 30.2 °F 70% 29.80 in 10.0 mi East 6.9 mph - N/A   Overcast
1:35 AM 39.2 °F 33.6 °F 30.2 °F 70% 29.79 in 10.0 mi East 8.1 mph - N/A   Overcast
1:55 AM 39.2 °F 32.5 °F 30.2 °F 70% 29.78 in 10.0 mi East 10.4 mph - N/A   Overcast
2:15 AM 39.2 °F 33.6 °F 30.2 °F 70% 29.78 in 5.0 mi ESE 8.1 mph - N/A   Drizzle
2:35 AM 39.2 °F 32.5 °F 30.2 °F 70% 29.78 in 10.0 mi ESE 10.4 mph - N/A   Overcast
2:55 AM 37.4 °F 28.9 °F 32.0 °F 81% 29.78 in 7.0 mi ESE 13.8 mph - N/A   Overcast
3:15 AM 37.4 °F 29.8 °F 33.8 °F 87% 29.76 in 7.0 mi ESE 11.5 mph 18.4 mph N/A   Overcast
3:35 AM 39.2 °F 31.6 °F 33.8 °F 81% 29.75 in 7.0 mi ESE 12.7 mph 19.6 mph N/A   Overcast
3:55 AM 37.4 °F 28.9 °F 33.8 °F 87% 29.74 in 5.0 mi ESE 13.8 mph 18.4 mph N/A   Light Drizzle
4:15 AM 37.4 °F 28.9 °F 35.6 °F 93% 29.73 in 3.0 mi SE 13.8 mph - N/A Rain Light Rain
4:35 AM 37.4 °F 29.3 °F 35.6 °F 93% 29.72 in 2.5 mi ESE 12.7 mph - N/A Rain Light Rain
4:55 AM 37.4 °F 28.9 °F 35.6 °F 93% 29.71 in 2.5 mi ESE 13.8 mph - N/A   Drizzle
5:15 AM 37.4 °F 30.3 °F 35.6 °F 93% 29.69 in 2.5 mi ESE 10.4 mph 17.3 mph 0.01 in Rain Light Rain
5:35 AM 37.4 °F 29.8 °F 35.6 °F 93% 29.68 in 4.0 mi ESE 11.5 mph - 0.02 in Rain Light Rain
5:55 AM 37.4 °F 29.8 °F 35.6 °F 93% 29.67 in 4.0 mi East 11.5 mph - 0.02 in Rain Light Rain
6:15 AM 37.4 °F 30.3 °F 35.6 °F 93% 29.66 in 3.0 mi East 10.4 mph - N/A   Drizzle
6:35 AM 37.4 °F 30.3 °F 35.6 °F 93% 29.65 in 3.0 mi East 10.4 mph - 0.02 in Rain Light Rain
6:56 AM 37.4 °F 30.3 °F 35.6 °F 93% 29.64 in 3.0 mi East 10.4 mph - N/A Rain Light Rain
7:15 AM 37.4 °F 30.8 °F 35.6 °F 93% 29.63 in 3.0 mi East 9.2 mph - 0.02 in Rain Light Rain
7:36 AM 37.4 °F 31.4 °F 35.6 °F 93% 29.63 in 3.0 mi East 8.1 mph - 0.03 in Rain Light Rain
7:55 AM 37.4 °F 29.8 °F 35.6 °F 93% 29.62 in 3.0 mi East 11.5 mph - 0.05 in Rain Light Rain
8:15 AM 37.4 °F 31.4 °F 35.6 °F 93% 29.63 in 3.0 mi ESE 8.1 mph - 0.03 in Rain Light Rain
8:35 AM 37.4 °F 30.8 °F 35.6 °F 93% 29.62 in 2.0 mi ESE 9.2 mph - 0.06 in Rain Light Rain
8:55 AM 37.4 °F 29.8 °F 35.6 °F 93% 29.62 in 4.0 mi SE 11.5 mph - 0.08 in Rain Light Rain
9:15 AM 37.4 °F 30.3 °F 35.6 °F 93% 29.61 in 5.0 mi ESE 10.4 mph - 0.01 in Rain Light Rain
9:35 AM 37.4 °F 31.4 °F 35.6 °F 93% 29.61 in 4.0 mi ESE 8.1 mph - 0.03 in Rain Light Rain
9:55 AM 37.4 °F 30.3 °F 35.6 °F 93% 29.60 in 5.0 mi SE 10.4 mph - 0.04 in Rain Light Rain
10:15 AM 37.4 °F 30.8 °F 35.6 °F 93% 29.60 in 5.0 mi SE 9.2 mph - 0.01 in Rain Rain
10:36 AM 37.4 °F 30.8 °F 35.6 °F 93% 29.59 in 5.0 mi SE 9.2 mph - 0.03 in Rain Light Rain
10:56 AM 37.4 °F 32.1 °F 35.6 °F 93% 29.58 in 5.0 mi SE 6.9 mph - N/A Rain Rain
11:13 AM 37.4 °F 30.8 °F 35.6 °F 93% 29.58 in 7.0 mi SE 9.2 mph - 0.01 in Rain Light Rain
11:35 AM 37.4 °F 30.8 °F 35.6 °F 93% 29.57 in 10.0 mi ESE 9.2 mph - 0.01 in Rain Light Rain
11:56 AM 37.4 °F 32.1 °F 35.6 °F 93% 29.56 in 10.0 mi ESE 6.9 mph - N/A   Overcast
12:15 PM 37.4 °F 31.4 °F 35.6 °F 93% 29.55 in 4.0 mi ESE 8.1 mph - N/A   Overcast
12:35 PM 37.4 °F 32.1 °F 35.6 °F 93% 29.54 in 4.0 mi ESE 6.9 mph - N/A   Overcast
12:55 PM 37.4 °F 32.1 °F 35.6 °F 93% 29.53 in 5.0 mi ESE 6.9 mph - N/A   Overcast
1:15 PM 37.4 °F 31.4 °F 35.6 °F 93% 29.53 in 4.0 mi ESE 8.1 mph - N/A   Overcast
1:35 PM 37.4 °F 32.1 °F 35.6 °F 93% 29.52 in 2.5 mi ESE 6.9 mph - N/A   Overcast
1:55 PM 37.4 °F 33.8 °F 37.4 °F 100% 29.52 in 1.2 mi ESE 4.6 mph - N/A   Overcast
2:15 PM 37.4 °F 34.9 °F 35.6 °F 93% 29.52 in 1.0 mi East 3.5 mph - N/A   Drizzle
2:35 PM 37.4 °F 34.9 °F 35.6 °F 93% 29.52 in 1.0 mi East 3.5 mph - N/A   Light Drizzle
2:55 PM 37.4 °F 34.9 °F 35.6 °F 93% 29.51 in 0.8 mi East 3.5 mph - N/A   Light Drizzle
3:15 PM 37.4 °F 34.9 °F 35.6 °F 93% 29.52 in 1.0 mi East 3.5 mph - N/A   Overcast
3:35 PM 37.4 °F 34.9 °F 35.6 °F 93% 29.52 in 1.0 mi East 3.5 mph - N/A   Light Drizzle
3:55 PM 37.4 °F 34.9 °F 35.6 °F 93% 29.52 in 1.2 mi East 3.5 mph - N/A   Light Drizzle
4:15 PM 37.4 °F - 35.6 °F 93% 29.52 in 1.2 mi Calm Calm - N/A   Overcast
4:35 PM 37.4 °F - 35.6 °F 93% 29.53 in 1.2 mi Calm Calm - N/A   Overcast
4:55 PM 37.4 °F - 35.6 °F 93% 29.53 in 1.8 mi Calm Calm - N/A   Overcast
5:15 PM 35.6 °F - 35.6 °F 100% 29.52 in 0.8 mi Calm Calm - N/A   Overcast
5:35 PM 35.6 °F - 35.6 °F 100% 29.53 in 0.5 mi Calm Calm - N/A Fog Fog
5:56 PM 35.6 °F - 35.6 °F 100% 29.53 in 0.5 mi Calm Calm - N/A Fog Fog
6:15 PM 35.6 °F - 35.6 °F 100% 29.53 in 0.2 mi Calm Calm - N/A Fog Fog
6:35 PM 35.6 °F - 33.8 °F 93% 29.53 in 0.2 mi Calm Calm - N/A Fog Fog
6:55 PM 35.6 °F - 33.8 °F 93% 29.53 in 0.2 mi Calm Calm - N/A Fog Fog
7:15 PM 35.6 °F - 35.6 °F 100% 29.53 in 0.2 mi Calm Calm - N/A Fog Fog
7:35 PM 35.6 °F - 33.8 °F 93% 29.53 in 0.2 mi Calm Calm - N/A Fog Fog
7:55 PM 35.6 °F - 33.8 °F 93% 29.53 in 0.2 mi Calm Calm - N/A Fog Fog
8:15 PM 35.6 °F - 33.8 °F 93% 29.53 in 0.2 mi Calm Calm - N/A Fog Fog
8:35 PM 35.6 °F - 33.8 °F 93% 29.53 in 0.2 mi Calm Calm - N/A   Drizzle
8:55 PM 35.6 °F - 33.8 °F 93% 29.53 in 0.2 mi Calm Calm - N/A Fog Fog
9:15 PM 35.6 °F - 33.8 °F 93% 29.53 in 0.2 mi Calm Calm - N/A Rain Rain
9:35 PM 35.6 °F - 33.8 °F 93% 29.53 in 0.2 mi Calm Calm - N/A   Drizzle
9:55 PM 35.6 °F - 33.8 °F 93% 29.53 in 0.2 mi Calm Calm - N/A   Drizzle
10:15 PM 35.6 °F 32.8 °F 33.8 °F 93% 29.53 in 0.2 mi WNW 3.5 mph - N/A Rain Light Rain
10:35 PM 35.6 °F 31.7 °F 33.8 °F 93% 29.54 in 0.5 mi WNW 4.6 mph - 0.01 in Rain Rain
10:55 PM 35.6 °F 30.7 °F 33.8 °F 93% 29.54 in 0.8 mi WNW 5.8 mph - 0.01 in Rain Rain
11:15 PM 35.6 °F 31.7 °F 33.8 °F 93% 29.54 in 1.0 mi WNW 4.6 mph - N/A Rain Light Rain
11:35 PM 35.6 °F 31.7 °F 33.8 °F 93% 29.54 in 1.5 mi West 4.6 mph - N/A   Light Drizzle
11:55 PM 35.6 °F 30.7 °F 33.8 °F 93% 29.54 in 1.2 mi West 5.8 mph - N/A   Light Drizzle